Location: Niles Junction
(37.5763°N, 121.9714°W)
Time: 04:35:07
(UTC+00:00)

Cosmos 1689 Rocket - Pass Details

Date: 29 October 2020
Orbit: 360 x 375 km, 97.5° (Epoch: 23 November)

Event Time Altitude Azimuth Distance (km) Brightness Sun altitude
Rises 13:17:58 0° 161° (SSE) 2,224 6.3 -14.9°
Reaches altitude 10° 13:19:55 10° 158° (SSE) 1,375 5.2 -14.5°
Maximum altitude 13:22:48 64° 77° (ENE) 418 2.4 -13.9°
Drops below altitude 10° 13:25:43 10° 355° (N) 1,377 4.7 -13.4°
Sets 13:27:40 0° 352° (N) 2,227 5.8 -13.0°
